Regional Weather Roundup
Issued by NWS Sterling, VA

Home | Current Version | Previous Version | Graphics & Text | Print | Product List | Glossary On
Versions: 1 2 3 4 5 6 7 8 9 10 11 12 13 14 15 16 17 18 19 20 21 22 23 24 25 26 27 28 29 30 31 32 33 34 35 36 37 38 39 40 41 42 43 44 45 46
000
ASUS41 KLWX 280410
RWRLWX

REGIONAL WEATHER ROUNDUP
NATIONAL WEATHER SERVICE BALTIMORE MD/WASHINGTON DC
1100 PM EST FRI FEB 27 2015

Note: "FAIR" indicates few or no clouds below 12,000 feet
with no significant weather and/or obstructions to visibility.
 TC=TEMPERATURE CELSIUS

 * =Non NWS site. Station does not report precipitation (e.g. rain,
    snow, etc.), thunder, or fog.

DCZ001-MDZ009-015-VAZ040>042-051-053>054-280500-
WASHINGTON METRO

CITY           SKY/WX    TMP DP  RH WIND       PRES   REMARKS
WASHINGTON NAT FAIR      26   4  38 N12       30.67R WCI  16
DULLES         CLEAR     21   1  41 N12       30.64R WCI   9
ANDREWS AFB    CLEAR     23   3  42 N14       30.64R WCI  10
FT BELVOIR     CLEAR     24   2  37 N5        30.66R
QUANTICO       CLEAR     26   5  40 N13G22    30.66R WCI  15
COLLEGE PARK*  FAIR      25   1  36 N8        30.66R WCI  16
LEESBURG*      CLEAR     23   5  46 N9        30.66R WCI  13
MANASSAS*      CLEAR     21   7  53 N10       30.65R WCI  10
GAITHERSBURG*  CLEAR     18   0  45 NW5       30.67R

$$

MDZ006>007-011-014-280500-
BALTIMORE METRO

CITY           SKY/WX    TMP DP  RH WIND       PRES   REMARKS
BWI AIRPORT    PTCLDY    22   2  42 NW9       30.64R WCI  12
MD SCIENCE CTR   N/A     23   2  40 MISG      30.72R
MARTIN STATE   CLEAR     25   5  42 NW9       30.67R WCI  15
ANNAPOLIS      CLEAR     23   9  55 NW5       30.65R
FORT MEADE*    CLEAR     23   3  42 NW5       30.68R

$$

MDZ012-015-019>023-280500-
MARYLAND EASTERN SHORE

CITY           SKY/WX    TMP DP  RH WIND       PRES   REMARKS
OCEAN CITY     PTCLDY    21  11  65 N6        30.62R
SALISBURY      CLEAR     24  12  60 NW3       30.62R
BAY BRIDGE AP*   N/A     25  10  54 N10       30.65R WCI  15
CAMBRIDGE*     CLEAR     28  12  50 N5        30.62R
EASTON*        CLEAR     24  13  63 CALM      30.67R

$$

MDZ017>025-280500-
SOUTHERN MARYLAND

CITY           SKY/WX    TMP DP  RH WIND       PRES   REMARKS
PATUXENT RIVER CLEAR     25  14  63 N7        30.64R
ST INIGOES     CLEAR     19  13  77 CALM      30.63R
LEONARDTOWN*   CLEAR     27   9  46 N5        30.65R

$$

MDZ003>005-280500-
NORTH CENTRAL MARYLAND

CITY           SKY/WX    TMP DP  RH WIND       PRES   REMARKS
FREDERICK*     CLEAR     21   0  39 N7        30.68R
HAGERSTOWN APT CLEAR     19   0  43 NW10      30.63R WCI   7
WESTMINSTER*   PTCLDY    18   0  45 NW6       30.60R

$$

MDZ501>502-280500-
WESTERN MARYLAND

CITY           SKY/WX    TMP DP  RH WIND       PRES   REMARKS
OAKLAND*       PTCLDY     5  -8  56 NW5       30.45R
CUMBERLAND*    PTCLDY    19   0  42 N5        30.68R

$$

VAZ025>031-280500-
SHENANDOAH VALLEY

CITY           SKY/WX    TMP DP  RH WIND       PRES   REMARKS
WINCHESTER*    CLEAR     21  -2  35 N10       30.63R WCI  10
FRONT ROYAL*   FAIR      19   3  49 NE3       30.61R
LURAY*         FAIR      23   9  54 N7        30.60R
NEW MARKET*    FAIR      13   3  65 CALM      30.60R
STAUNTON*      CLEAR     20   4  50 N8        30.58R WCI  10
WAYNESBORO*    FAIR      19   4  54 N6        30.54R

$$

WVZ021-048>050-054>055-280500-
EASTERN WEST VIRGINIA PANHANDLE

CITY           SKY/WX    TMP DP  RH WIND       PRES   REMARKS
MARTINSBURG    CLEAR     19   1  45 CALM      30.65R
PETERSBURG*    NOT AVBL

$$

VAZ036>039-050-280500-
CENTRAL FOOTHILLS

CITY           SKY/WX    TMP DP  RH WIND       PRES   REMARKS
CHARLOTTESVILL CLEAR     25   8  48 NE7       30.58R
CULPEPER*      CLEAR     23   7  50 N6        30.63R
ORANGE*        PTCLDY    23  10  58 N6        30.62R
GORDONSVILLE*  FAIR      24   7  48 NE6       30.60S
WARRENTON*     FAIR      23  11  60 NE8       30.63R WCI  14

$$

VAZ055>057-280500-
NORTH AND CENTRAL PIEDMONT

CITY           SKY/WX    TMP DP  RH WIND       PRES   REMARKS
FREDERICKSBRG* CLEAR     28   9  46 N5        30.64R
STAFFORD*      CLEAR     25   2  37 N8        30.68R WCI  16

$$

NCZ024-NYZ072-PAZ021-071-VAZ022-071-280500-
OTHER REGIONAL OBSERVATIONS

CITY           SKY/WX    TMP DP  RH WIND       PRES   REMARKS
NEW YORK CITY  CLEAR     22  -2  35 N10       30.62R WCI  11
PHILADELPHIA   CLEAR     25   4  40 NW8       30.63R WCI  16
PITTSBURGH     PTCLDY     7  -3  64 W3        30.63R
ROANOKE        CLEAR     23   5  46 N12       30.58R WCI  12
RICHMOND       PTCLDY    27  17  66 CALM      30.61R
RALEIGH        PTCLDY    33  16  49 NE8       30.55R WCI  26

$$

ANZ530>537-280500-
MARINE OBSERVATIONS

STATION/POSITION TIME  TEMP    WIND        PRES
                       AIR SEA DIR/SP/G
                 (UTC) (F)     (DEG/KT/KT) (MB)
THOMAS PT LIGHT  0400   26 31  330/ 13/ 14 1038.9R
BALT KEY BRIDGE  0300   26     330/ 12/ 15 1037.0R
COVE POINT       0300   27      40/ 11/ 12 1035.8R
LEWISETTA        0300   28 32              1036.0R
SOLOMONS ISLAND  0300      33                N/A

$$



USA.gov is the U.S. government's official web portal to all federal, state and local government web resources and services.